#timestamp,LO_Frequency,Hit,StdDev 
1692766815.7,286046998.4,N
1692766835.5,286046998.7,N
1692766855.3,286046998.3,N
1692766875.2,286046999.3,N
1692766895.0,286046998.4,N
1692766895.9,286046998.4,N
1692766915.8,286046999.0,N
1692766935.6,286046999.3,N
1692766955.4,286046998.2,N
1692766975.3,286046998.8,N
1692766995.1,286046998.7,N
1692767015.9,286046998.1,N
1692767035.7,286047000.8,N
1692767055.5,286046998.1,N
1692767105.4,286047001.2,E
1692767115.3,286046998.9,N
1692767135.2,286046996.6,P
1692767155.9,286046999.4,N
1692767175.7,286046999.0,N
1692767225.6,286046996.5,E
1692767235.5,286047000.8,N
1692767255.4,286047002.6,P
1692767275.2,286047001.6,N
1692767295.0,286047001.7,N
1692767295.9,286047001.7,N
1692767315.8,286047001.3,N
1692767335.6,286047003.9,Y
1692767355.5,286047002.3,P
1692767375.3,286047000.1,N
1692767395.1,286047001.9,N
1692767415.9,286047001.9,N
1692767435.7,286047002.1,N
1692767455.6,286047001.9,N
1692767475.4,286047002.2,Y
1692767495.2,286047000.5,P
1692767515.1,286047000.4,N
1692767516.0,286047000.4,N
1692767535.8,286047000.5,N
1692767555.7,286046998.1,Y
1692767575.3,286046998.9,P
1692767595.1,286046998.1,N
1692767615.9,286046998.1,N
1692767635.7,286047000.7,N
1692767655.6,286047001.0,N
1692767675.4,286047001.0,N
1692767695.2,286047000.6,N
1692767715.1,286047000.7,N
1692767716.0,286047000.7,N
1692767735.8,286047001.1,N
1692767755.6,286046998.3,N
1692767775.5,286046998.8,N
1692767795.3,286046998.8,N
1692767815.2,286046998.3,N
1692767835.9,286046999.3,N
1692767855.7,286046998.6,N
1692767875.6,286047000.8,N
1692767895.4,286047001.2,N
1692767915.2,286047000.6,N
1692767935.1,286047000.4,N
1692767936.0,286047000.4,N
1692767955.8,286047001.0,N
1692767975.7,286046998.7,N
1692767995.5,286046998.2,N
1692768015.3,286047000.8,N
1692768035.2,286047000.3,N
1692768055.0,286046998.1,N
1692768055.9,286046998.1,N
1692768075.7,286046998.3,N
1692768095.6,286046998.2,N
1692768115.4,286046998.1,N
1692768135.3,286046998.2,N
1692768155.1,286047001.2,N
1692768175.8,286047001.2,N
1692768195.7,286047000.3,N
1692768215.5,286047000.9,N
1692768235.4,286047000.9,N
1692768255.2,286047000.6,N
1692768275.0,286046998.1,N
1692768275.9,286046998.1,N
1692768295.8,286046998.1,N
1692768315.6,286047001.1,N
1692768335.5,286047000.7,N
1692768355.3,286047000.6,N
1692768375.1,286047000.3,N
1692768395.9,286047000.3,N
1692768415.7,286046999.9,N
1692768435.5,286046999.9,N
1692768455.4,286046999.8,N
1692768475.2,286047002.8,N
1692768495.1,286047000.4,N
1692768496.0,286047000.4,N
1692768515.8,286047000.5,N
1692768535.6,286047000.4,N
1692768555.5,286047000.4,N
1692768575.3,286047000.6,N
1692768595.1,286047000.6,N
1692768615.9,286047000.8,N
1692768635.7,286047000.8,N
1692768655.6,286047000.9,N
1692768675.4,286047000.7,N
1692768695.2,286046999.9,N
1692768715.1,286046999.8,N
1692768716.0,286046999.8,N
1692768735.8,286046999.7,N
1692768755.7,286047002.7,N
1692768775.5,286046999.7,N
1692768795.3,286046999.7,N
1692768815.2,286047002.7,N
1692768835.9,286047002.3,N
1692768855.7,286047002.2,N
1692768875.6,286047001.9,N
1692768895.4,286047000.2,N
1692768915.2,286047002.7,N
1692768935.1,286047002.7,N
1692768936.0,286047002.7,N
1692768955.8,286047000.2,N
1692768975.7,286047000.1,N
1692768995.5,286047000.0,N
1692769015.3,286047000.1,N
1692769035.2,286046999.9,N
1692769055.0,286046999.8,N
1692769055.9,286046999.8,N
1692769075.8,286047000.3,N
1692769095.6,286047000.5,N
1692769115.4,286047000.6,N
1692769135.3,286047000.6,N
1692769155.1,286047000.3,N
1692769175.9,286047001.0,N
1692769195.3,286047000.3,N
1692769215.1,286047000.2,N
1692769235.9,286047002.6,N
1692769255.7,286047002.5,N
1692769275.5,286047002.7,N
1692769295.4,286047002.3,N
1692769315.2,286046999.9,N
1692769335.1,286046999.8,N
1692769336.0,286046999.8,N
1692769355.8,286047000.3,N
1692769375.6,286047000.9,N
1692769395.5,286046999.9,N
1692769415.3,286047000.2,N
1692769435.1,286047000.1,N
1692769455.9,286047001.5,N
1692769475.7,286047002.1,N
1692769495.6,286047001.5,N
1692769515.4,286047001.9,N
1692769535.2,286047002.1,N
1692769555.1,286047001.6,N
1692769556.0,286047001.6,N
1692769575.8,286047002.2,N
1692769595.6,286047002.8,N
1692769615.5,286047002.1,N
1692769635.3,286046999.8,N
1692769655.2,286047000.6,N
1692769675.9,286047002.7,N
1692769695.7,286047000.2,N
1692769715.6,286047002.3,N
1692769735.4,286047002.8,N
1692769755.2,286047002.4,N
1692769775.7,286047000.2,N
1692769795.6,286047000.6,N
1692769815.4,286047000.5,N
1692769835.2,286047000.0,N
1692769855.1,286047000.5,N
1692769856.0,286047000.5,N
1692769875.8,286047000.0,N
1692769895.7,286047000.7,N
1692769915.5,286046998.6,N
1692769935.3,286046998.2,N
1692769955.2,286046999.6,N
1692769975.0,286046999.2,N
1692769975.9,286046999.2,N
1692769995.8,286046996.6,N
1692770015.6,286046999.2,N
1692770035.4,286046999.6,N
1692770055.3,286046999.2,N
1692770075.1,286046997.0,N
1692770095.8,286046996.7,N
1692770115.7,286046996.9,N
1692770135.5,286046997.8,N
1692770155.4,286046997.7,N
1692770175.2,286046998.4,N
1692770195.0,286046998.7,N
1692770195.9,286046998.7,N
1692770215.8,286046996.7,N
1692770235.6,286046997.4,N
1692770255.4,286046997.4,N
1692770275.3,286046997.2,N
1692770295.1,286046997.8,N
1692770315.9,286046998.0,N
1692770335.7,286046996.7,N
1692770355.5,286046997.5,N
1692770375.4,286046997.7,N
1692770395.2,286046997.5,N
